FW7455 Weather Reports


time (UTC)temp
F
wind
direction
speed
knots
gust
knots
rain 1hr
in
rain 24hr
in
rain mn
in
humidity
%
barometer
mb
20260505051544 61 225 9.6 14.8 0.00 0.00 0.00 55 1015.2
20260505041534 64 223 9.6 18.2 0.00 0.00 0.00 50 1015.0
20260505040047 63 205 7.8 12.2 0.00 0.00 0.00 53 1015.1
20260505034545 63 190 5.2 10.4 0.00 0.00 0.00 53 1015.2
20260505033039 62 233 4.3 7.8 0.00 0.00 0.00 54 1015.3
20260505031539 62 204 0.9 6.1 0.00 0.00 0.00 54 1015.4
20260505030035 63 212 1.7 4.3 0.00 0.00 0.00 53 1015.6
20260505024539 63 227 0.9 5.2 0.00 0.00 0.00 52 1015.6
20260505023039 64 203 0.9 8.7 0.00 0.00 0.00 50 1015.4
20260505021538 65 202 5.2 11.3 0.00 0.00 0.00 48 1015.2
20260505020039 66 223 5.2 11.3 0.00 0.00 0.00 48 1015.1
20260505014535 65 245 3.5 8.7 0.00 0.00 0.00 48 1015.0
20260505013043 66 0 0.0 2.6 0.00 0.00 0.00 46 1014.9
20260505011542 67 0 0.0 3.5 0.00 0.00 0.00 45 1014.9
20260505004535 68 214 5.2 13.0 0.00 0.00 0.00 43 1014.5
20260505003041 68 214 7.8 13.0 0.00 0.00 0.00 42 1014.4
20260505001539 69 186 1.7 6.1 0.00 0.00 0.00 41 1014.2
20260505000045 70 205 2.6 5.2 0.00 0.00 0.00 40 1014.3
20260504234536 71 220 4.3 8.7 0.00 0.00 0.00 39 1014.3
20260504233039 72 208 6.1 12.2 0.00 0.00 0.00 39 1014.1
20260504231540 72 205 7.0 11.3 0.00 0.00 0.00 39 1013.9
20260504230041 73 202 7.8 14.8 0.00 0.00 0.00 38 1014.0
20260504224539 73 175 7.0 16.5 0.00 0.00 0.00 37 1013.8
20260504223045 74 211 7.0 13.9 0.00 0.00 0.00 36 1013.9
20260504221548 75 182 5.2 11.3 0.00 0.00 0.00 36 1013.8
20260504220035 75 231 6.1 13.0 0.00 0.00 0.00 36 1013.9
20260504214539 75 225 8.7 14.8 0.00 0.00 0.00 35 1013.9
20260504213057 75 204 8.7 13.0 0.00 0.00 0.00 35 1014.0
20260504211546 76 205 7.0 13.0 0.00 0.00 0.00 34 1014.0
20260504210041 76 202 7.0 13.0 0.00 0.00 0.00 34 1014.0
20260504204535 76 79 8.7 13.9 0.00 0.00 0.00 34 1014.3
20260504203050 76 222 6.1 16.5 0.00 0.00 0.00 34 1014.4
20260504201540 76 176 7.0 13.0 0.00 0.00 0.00 34 1014.5
20260504200039 75 205 8.7 14.8 0.00 0.00 0.00 35 1014.6
20260504194541 77 197 5.2 15.6 0.00 0.00 0.00 35 1014.8
20260504193035 77 205 7.0 15.6 0.00 0.00 0.00 34 1014.9
20260504191545 75 138 3.5 12.2 0.00 0.00 0.00 36 1015.0
20260504190042 76 138 8.7 13.0 0.00 0.00 0.00 35 1015.2
20260504184538 76 212 5.2 13.0 0.00 0.00 0.00 35 1015.5
20260504183047 76 211 2.6 14.8 0.00 0.00 0.00 35 1015.7
20260504181538 76 202 4.3 12.2 0.00 0.00 0.00 37 1015.8
20260504180050 76 187 8.7 15.6 0.00 0.00 0.00 34 1016.0
20260504174543 77 184 2.6 9.6 0.00 0.00 0.00 34 1015.8
20260504173038 76 205 2.6 10.4 0.00 0.00 0.00 35 1015.8
20260504171536 74 0 0.9 9.6 0.00 0.00 0.00 35 1016.1
20260504081538 45 233 0.0 3.5 0.00 0.00 0.00 81 1016.8